Regional Weather Roundup
Issued by NWS Kansas City/Pleasant Hill, MO

Home | Current Version | Previous Version | Text Only | Print | Product List | Glossary On
Versions: 1 2 3 4 5 6 7 8 9 10 11 12 13 14 15 16 17 18 19 20 21 22 23 24 25 26 27 28 29 30 31 32 33 34 35 36 37 38 39 40 41 42 43 44 45 46 47 48 49 50
000
ASUS43 KEAX 012310
RWREAX

WEATHER ROUNDUP FOR EASTERN KANSAS AND NORTHWEST MISSOURI
NATIONAL WEATHER SERVICE KANSAS CITY/PLEASANT HILL MO
500 PM CST SUN MAR 01 2015

KSZ040-057-103>105-MOZ028-029-037-043-020000-
...KANSAS CITY METROPOLITAN AREA...

CITY           SKY/WX    TMP DP  RH WIND       PRES   REMARKS
K.C. INTL      PTSUNNY   32  21  64 NW7       30.38R WCI  26
K.C. DOWNTOWN  MOSUNNY   34  21  59 NW7       30.40R WCI  28
LEES SUMMIT    CLOUDY    32  21  64 NW7       30.38R WCI  26
OLATHE - IXD   MOSUNNY   32  22  66 N8        30.38S WCI  25
OLATHE - OJC   PTSUNNY   33  21  61 N9        30.37R WCI  25
LAWRENCE       MOSUNNY   35  21  56 NW7       30.40R WCI  29

$$

MOZ001>008-011>017-020>025-030>033-038>040-044>046-053-054-020000-
...NORTHERN AND CENTRAL MISSOURI...

CITY           SKY/WX    TMP DP  RH WIND       PRES   REMARKS
ST. JOSEPH     PTSUNNY   32  21  64 CALM      30.40R
MOSBY          CLOUDY    32  23  69 NW7       30.39S WCI  26
WARRENSBURG    MOSUNNY   32  21  64 NW7       30.40R WCI  26
WHITEMAN AFB   PTSUNNY   29  20  69 N6        30.38  WCI  22
CLINTON        MOSUNNY   32  23  69 N5        30.40S WCI  27
SEDALIA        MOSUNNY   29  20  69 N6        30.39S WCI  23
WARSAW         NOT AVBL
MARSHALL       CLOUDY    32  23  69 CALM      30.40S
CHILLICOTHE      N/A     32  20  61 W3        30.40S
MOBERLY        CLOUDY    32  19  59 NW8       30.38S WCI  25
KIRKSVILLE     PTSUNNY   29  20  69 W8        30.36S WCI  21

$$

MOZ041-047>049-056>058-063>065-088>090-097-020000-
...EASTERN AND SOUTHERN MISSOURI...

CITY           SKY/WX    TMP DP  RH WIND       PRES   REMARKS
ST. LOUIS INTL CLOUDY    32  23  69 NW7       30.36S WCI  26
SPIRIT OF STL  CLOUDY    31  23  72 NW8       30.36S WCI  23
COLUMBIA       MOSUNNY   30  21  69 NW9       30.37R WCI  22
JEFFERSON CITY MOSUNNY   30  22  72 W8        30.39R WCI  22
MEXICO         PTSUNNY   32  25  74 NW3       30.37F
HANNIBAL       MOCLDY    30  18  59 NW6       30.37S WCI  24
ROLLA          CLOUDY    29  23  78 NW6       30.33S WCI  23
LEBANON        CLOUDY    30  25  80 N7        30.35S WCI  23
OSAGE BEACH    CLOUDY    30  23  74 CALM      30.37R
SPRINGFIELD    CLOUDY    31  25  78 NW10      30.35R WCI  22
BRANSON        CLOUDY    32  32 100 CALM      30.34R FOG
NEVADA         MOSUNNY   30  21  69 NW10      30.41R WCI  21
JOPLIN         CLOUDY    31  24  75 N6        30.39R WCI  25
WEST PLAINS    CLOUDY    34  29  82 N5        30.32S WCI  30

$$

IAZ060-094-KSZ022-034>040-054-083-096-NEZ052-066-093-020000-
...KANSAS...SOUTHEAST NEBRASKA AND IOWA...

CITY           SKY/WX    TMP DP  RH WIND       PRES   REMARKS
TOPEKA         MOSUNNY   35  21  56 NW7       30.40R WCI  29
MANHATTAN      MOSUNNY   35  20  54 CALM      30.39S
EMPORIA        SUNNY     33  21  61 N7        30.38S WCI  27
CHANUTE        MOSUNNY   32  21  64 N9        30.39S WCI  24
WICHITA        MOSUNNY   31  19  61 NE8       30.38S WCI  23
OMAHA          MOSUNNY   39  16  39 NW12      30.35S WCI  32
LINCOLN        SUNNY     40  13  33 VRB5      30.37R
FALLS CITY     MOSUNNY   38  18  44 NW5       30.36S WCI  34
LAMONI         SUNNY     34  19  54 NW10      30.34R WCI  26
DES MOINES     MOSUNNY   33  17  51 NW14      30.35S WCI  23

$$




USA.gov is the U.S. government's official web portal to all federal, state and local government web resources and services.